Location: Unspecified
(0.0000°N, 0.0000°E)
Time: 01:29:04
(UTC+02:00)

Milstar 3 - Visible Passes

Search period start: 21 October 2017 00:00
Search period end: 30 October 2017 23:00
Orbit: 1097 x 5148 km, 28.2° (Epoch: 12 October)

Date Brightness Start Highest point End Pass type
(mag) Time Alt. Az. Time Alt. Az. Time Alt. Az.
21 Oct 5.0 07:19:41 10° N 07:23:32 14° NNE 07:28:08 10° ENE visible
21 Oct 4.7 21:29:00 10° SW 21:57:56 72° SSE 22:03:40 52° E visible
22 Oct 5.8 00:28:24 10° WSW 00:37:16 27° W 00:37:16 27° W visible
22 Oct 5.3 20:21:30 10° SW 20:52:36 60° SSE 21:05:55 24° E visible
22 Oct 5.0 23:20:13 10° WSW 23:39:30 56° WNW 23:39:30 56° WNW visible
23 Oct 5.9 19:14:21 10° SW 19:45:59 51° SSE 20:06:38 10° E visible
23 Oct 4.6 22:12:07 10° WSW 22:39:38 84° NNW 22:41:46 75° NE visible
24 Oct 6.4 01:13:44 10° W 01:15:21 12° W 01:15:21 12° W visible
24 Oct 4.9 06:58:15 10° N 07:02:12 15° NNE 07:06:51 10° ENE visible
24 Oct 4.9 21:04:21 10° SW 21:35:10 78° SSE 21:44:02 41° ENE visible
25 Oct 5.7 00:04:51 10° W 00:17:37 33° WNW 00:17:37 33° WNW visible
25 Oct 5.5 19:57:05 10° SW 20:29:32 65° SSE 20:46:18 18° ENE visible
25 Oct 4.9 22:56:01 10° WSW 23:19:53 60° NW 23:19:53 60° NW visible
26 Oct 4.8 21:47:36 10° WSW 22:16:54 79° NNW 22:22:09 57° NE visible
27 Oct 6.2 00:50:51 10° W 00:55:45 17° WNW 00:55:45 17° WNW visible
27 Oct 4.8 06:36:42 10° N 06:40:54 17° NNE 06:45:44 10° ENE visible
27 Oct 5.2 20:39:50 10° WSW 21:12:05 84° SSE 21:24:26 31° ENE visible
27 Oct 5.5 23:41:11 10° W 23:58:01 37° WNW 23:58:01 37° WNW visible
28 Oct 5.8 19:32:52 10° SW 20:06:08 70° SSE 20:26:43 11° ENE visible
28 Oct 5.0 22:31:47 10° WSW 22:58:09 57° NW 23:00:17 55° NNW visible
29 Oct 4.4 06:15:25 10° NNW 06:21:27 33° NNE 06:29:36 10° E visible
29 Oct 5.1 20:23:08 10° WSW 20:53:54 74° NW 21:02:33 43° NE visible
29 Oct 6.1 23:27:48 10° W 23:36:09 21° WNW 23:36:09 21° WNW visible
30 Oct 4.7 05:15:12 10° NNW 05:19:38 19° NNE 05:24:45 10° ENE visible
30 Oct 5.5 19:15:29 10° WSW 19:48:42 89° SSE 20:04:49 22° ENE visible
30 Oct 5.5 22:17:24 10° W 22:38:24 39° NW 22:38:24 39° NW visible
